MOZHAETS 4 (RS22)

Last updated on Tue Aug 25 2026 00:03:13 GMT+0000 (Coordinated Universal Time)

1 27939U 03042A 26236.66113582 .00000654 00000+0 10876-3 0 9999 2 27939 98.3489 62.9695 0012407 54.9093 9.3735 14.73571474225632
UTC large
Height (km)
Speed (km/s)
/
Latitude / Longitude
Inclination (degrees)
Orbital Period (minutes)
Azimuth
Elevation
Range (km)
Doppler Factor

Next 0 passes for location: London (51.5072 / 0.1276)

No passes found over London.
MOZHAETS 4 (RS22)